CAL527 KLAX-KSFO

Flight info

Callsign CAL527
Flight time 0h 33m
Altitude 24000
Route SUMMR2 STOKD DCT SERFR SERFR4
Aircraft A20N/M-SDE2E3FGHIRWXY/LB1

Departure

Time 2026-04-26 19:47
Airport Los Angeles International Airport (KLAX)

Arrival

Time 2026-04-26 20:20
Airport San Francisco International Airport (KSFO)
Time Latitude Longitude Altitude Speed Heading
2026-04-26 19:29 33.94697 -118.40781 125 ft 0 kts 173°
2026-04-26 19:36 33.94703 -118.40782 120 ft 1 kts 173°
2026-04-26 19:36 33.94709 -118.40783 121 ft 1 kts 173°
2026-04-26 19:36 33.94719 -118.40784 120 ft 1 kts 173°
2026-04-26 19:36 33.94727 -118.40785 123 ft 1 kts 173°
2026-04-26 19:37 33.94735 -118.40786 122 ft 1 kts 173°
2026-04-26 19:37 33.94743 -118.40788 123 ft 1 kts 173°
2026-04-26 19:37 33.94751 -118.40789 124 ft 1 kts 173°
2026-04-26 19:37 33.94757 -118.40790 123 ft 0 kts 173°
2026-04-26 19:40 33.94757 -118.40788 125 ft 0 kts 161°
2026-04-26 19:41 33.94757 -118.40783 125 ft 1 kts 113°
2026-04-26 19:41 33.94758 -118.40781 125 ft 0 kts 95°
2026-04-26 19:41 33.94760 -118.40779 120 ft 0 kts 60°
2026-04-26 19:41 33.94762 -118.40779 121 ft 0 kts 45°
2026-04-26 19:42 33.94763 -118.40779 121 ft 0 kts 31°
2026-04-26 19:42 33.94791 -118.40743 122 ft 8 kts 58°
2026-04-26 19:43 33.94787 -118.40712 124 ft 4 kts 129°
2026-04-26 19:43 33.94775 -118.40644 125 ft 13 kts 97°
2026-04-26 19:43 33.94789 -118.40511 120 ft 19 kts 79°
2026-04-26 19:43 33.94811 -118.40339 125 ft 23 kts 82°
2026-04-26 19:44 33.94843 -118.40153 125 ft 18 kts 71°
2026-04-26 19:44 33.94919 -118.40082 122 ft 0 kts 22°
2026-04-26 19:45 33.94925 -118.40079 123 ft 4 kts 22°
2026-04-26 19:45 33.94997 -118.40083 124 ft 16 kts 319°
2026-04-26 19:45 33.95022 -118.40146 125 ft 0 kts 274°
2026-04-26 19:45 33.95023 -118.40152 125 ft 0 kts 274°
2026-04-26 19:46 33.95023 -118.40155 125 ft 5 kts 273°
2026-04-26 19:46 33.94974 -118.40544 121 ft 90 kts 259°
2026-04-26 19:46 33.94878 -118.41579 205 ft 148 kts 264°
2026-04-26 19:47 33.94853 -118.42835 926 ft 154 kts 266°
2026-04-26 19:47 33.94825 -118.43729 1318 ft 168 kts 266°
2026-04-26 19:47 33.94747 -118.45616 2752 ft 166 kts 266°
2026-04-26 19:47 33.94674 -118.46979 3770 ft 163 kts 266°
2026-04-26 19:48 33.94583 -118.48401 4444 ft 182 kts 266°
2026-04-26 19:48 33.94465 -118.50034 4835 ft 209 kts 265°
2026-04-26 19:48 33.94295 -118.51799 4887 ft 212 kts 263°
2026-04-26 19:48 33.94055 -118.53512 4916 ft 204 kts 260°
2026-04-26 19:49 33.93746 -118.55186 4952 ft 206 kts 257°
2026-04-26 19:49 33.93368 -118.56834 4988 ft 208 kts 255°
2026-04-26 19:49 33.92910 -118.58497 5039 ft 209 kts 252°
2026-04-26 19:49 33.92429 -118.60133 5081 ft 206 kts 254°
2026-04-26 19:50 33.92045 -118.61806 5122 ft 208 kts 258°
2026-04-26 19:50 33.91764 -118.63537 5137 ft 207 kts 262°
2026-04-26 19:50 33.91599 -118.65234 5137 ft 208 kts 266°
2026-04-26 19:50 33.91541 -118.66970 5096 ft 207 kts 270°
2026-04-26 19:51 33.91592 -118.68699 5001 ft 207 kts 274°
2026-04-26 19:51 33.91752 -118.70419 4848 ft 207 kts 278°
2026-04-26 19:51 33.92021 -118.72125 4632 ft 204 kts 282°
2026-04-26 19:51 33.92382 -118.73669 5086 ft 186 kts 287°
2026-04-26 19:52 33.92850 -118.75160 5971 ft 192 kts 290°
2026-04-26 19:52 33.93343 -118.76661 6926 ft 193 kts 288°
2026-04-26 19:52 33.93586 -118.78246 7848 ft 194 kts 271°
2026-04-26 19:52 33.93426 -118.79862 8808 ft 195 kts 258°
2026-04-26 19:53 33.93015 -118.81431 9755 ft 197 kts 253°
2026-04-26 19:53 33.92544 -118.82964 10598 ft 201 kts 254°
2026-04-26 19:53 33.92102 -118.84588 11328 ft 207 kts 257°
2026-04-26 19:53 33.91720 -118.86324 11823 ft 224 kts 259°
2026-04-26 19:54 33.91382 -118.88187 11875 ft 227 kts 261°
2026-04-26 19:54 33.91094 -118.90039 11893 ft 225 kts 263°
2026-04-26 19:54 33.90853 -118.91923 11925 ft 235 kts 264°
2026-04-26 19:54 33.90643 -118.94021 12051 ft 269 kts 265°
2026-04-26 19:55 33.90466 -118.96359 12138 ft 302 kts 267°
2026-04-26 19:55 33.90335 -118.99047 11958 ft 340 kts 269°
2026-04-26 19:55 33.90339 -119.02033 11794 ft 370 kts 272°
2026-04-26 19:55 33.90652 -119.05132 11541 ft 375 kts 282°
2026-04-26 19:56 33.91459 -119.08071 11697 ft 366 kts 295°
2026-04-26 19:56 33.92810 -119.10604 13144 ft 350 kts 308°
2026-04-26 19:56 33.94530 -119.12599 14696 ft 332 kts 320°
2026-04-26 19:56 33.96256 -119.14148 16809 ft 290 kts 321°
2026-04-26 19:57 33.97795 -119.15470 18676 ft 255 kts 322°
2026-04-26 19:57 33.99171 -119.16599 20065 ft 227 kts 321°
2026-04-26 19:57 34.00434 -119.17699 20806 ft 224 kts 319°
2026-04-26 19:57 34.01733 -119.18813 21155 ft 236 kts 321°
2026-04-26 19:58 34.03138 -119.19903 21541 ft 244 kts 324°
2026-04-26 19:58 34.04603 -119.21001 21779 ft 261 kts 322°
2026-04-26 19:58 34.06215 -119.22301 21596 ft 292 kts 322°
2026-04-26 19:58 34.07946 -119.23742 21703 ft 313 kts 321°
2026-04-26 19:59 34.09777 -119.25306 21812 ft 333 kts 321°
2026-04-26 19:59 34.11713 -119.27000 21870 ft 354 kts 321°
2026-04-26 19:59 34.13754 -119.28814 21910 ft 375 kts 322°
2026-04-26 19:59 34.16093 -119.30500 21556 ft 407 kts 328°
2026-04-26 20:00 34.18561 -119.32310 21596 ft 423 kts 324°
2026-04-26 20:00 34.20976 -119.34433 21739 ft 435 kts 319°
2026-04-26 20:00 34.23324 -119.36811 21908 ft 445 kts 316°
2026-04-26 20:00 34.25617 -119.39320 21969 ft 446 kts 315°
2026-04-26 20:01 34.27878 -119.41880 21969 ft 446 kts 315°
2026-04-26 20:01 34.30135 -119.44462 21966 ft 446 kts 315°
2026-04-26 20:01 34.32382 -119.47035 21960 ft 446 kts 315°
2026-04-26 20:01 34.34637 -119.49613 21956 ft 446 kts 315°
2026-04-26 20:02 34.36277 -119.51486 21954 ft 446 kts 315°
2026-04-26 20:02 34.38410 -119.54009 21956 ft 441 kts 315°
2026-04-26 20:02 34.39691 -119.55484 21967 ft 445 kts 314°
2026-04-26 20:02 34.41153 -119.57210 21964 ft 443 kts 315°
2026-04-26 20:03 34.44181 -119.60627 21959 ft 447 kts 315°
2026-04-26 20:03 34.45869 -119.62515 21961 ft 447 kts 315°
2026-04-26 20:03 34.47863 -119.64759 21963 ft 447 kts 315°
2026-04-26 20:04 34.48202 -119.65143 21956 ft 0 kts 315°
2026-04-26 20:04 34.48936 -119.66047 22005 ft 444 kts 313°
2026-04-26 20:04 34.51094 -119.68605 21964 ft 441 kts 315°
2026-04-26 20:05 34.53392 -119.71193 21959 ft 447 kts 315°
2026-04-26 20:05 34.55680 -119.73755 21959 ft 447 kts 315°
2026-04-26 20:05 34.56585 -119.74774 21949 ft 0 kts 315°
2026-04-26 20:06 34.56621 -119.74817 21952 ft 0 kts 315°
2026-04-26 20:06 34.65257 -119.85206 21955 ft 0 kts 315°
2026-04-26 20:07 35.44439 -120.80970 22025 ft 447 kts 314°
2026-04-26 20:07 35.46705 -120.83354 21990 ft 441 kts 322°
2026-04-26 20:07 36.42022 -121.77592 22089 ft 29709 kts 323°
2026-04-26 20:07 36.64553 -122.01015 22188 ft 443 kts 322°
2026-04-26 20:08 36.66740 -122.02893 22391 ft 442 kts 324°
2026-04-26 20:08 36.69369 -122.04699 22415 ft 447 kts 334°
2026-04-26 20:08 36.72361 -122.05841 22162 ft 450 kts 346°
2026-04-26 20:08 36.75506 -122.06138 22067 ft 458 kts 359°
2026-04-26 20:09 36.78665 -122.05592 21962 ft 461 kts 10°
2026-04-26 20:09 36.81674 -122.04276 21448 ft 463 kts 22°
2026-04-26 20:09 36.84501 -122.02351 20720 ft 462 kts 27°
2026-04-26 20:09 36.87227 -122.00255 19933 ft 458 kts 28°
2026-04-26 20:10 36.89924 -121.98195 19126 ft 451 kts 25°
2026-04-26 20:10 36.92784 -121.96728 18333 ft 440 kts 12°
2026-04-26 20:10 36.95758 -121.96102 17452 ft 429 kts 359°
2026-04-26 20:10 36.98673 -121.96342 16594 ft 418 kts 346°
2026-04-26 20:11 37.01453 -121.97289 15727 ft 411 kts 339°
2026-04-26 20:11 37.03238 -121.98067 15167 ft 408 kts 338°
2026-04-26 20:11 37.06705 -121.99624 14362 ft 397 kts 338°
2026-04-26 20:12 37.11701 -122.01718 13989 ft 362 kts 340°
2026-04-26 20:12 37.14050 -122.02655 13833 ft 347 kts 340°
2026-04-26 20:12 37.16306 -122.03543 13688 ft 332 kts 340°
2026-04-26 20:12 37.18469 -122.04389 13556 ft 319 kts 340°
2026-04-26 20:13 37.20543 -122.05200 13436 ft 306 kts 340°
2026-04-26 20:13 37.22532 -122.05979 13312 ft 293 kts 340°
2026-04-26 20:13 37.24444 -122.06729 13170 ft 283 kts 340°
2026-04-26 20:13 37.26313 -122.07465 12801 ft 281 kts 340°
2026-04-26 20:14 37.28179 -122.08200 12420 ft 280 kts 340°
2026-04-26 20:14 37.30028 -122.08928 12059 ft 278 kts 339°
2026-04-26 20:14 37.31885 -122.09663 11470 ft 283 kts 340°
2026-04-26 20:14 37.33780 -122.10413 10723 ft 287 kts 340°
2026-04-26 20:15 37.35688 -122.11167 10005 ft 290 kts 340°
2026-04-26 20:15 37.37607 -122.11925 9219 ft 293 kts 340°
2026-04-26 20:15 37.38899 -122.12416 8644 ft 296 kts 341°
2026-04-26 20:15 37.41622 -122.13351 7291 ft 309 kts 342°
2026-04-26 20:16 37.43653 -122.14024 6631 ft 307 kts 343°
2026-04-26 20:16 37.45679 -122.14696 6261 ft 293 kts 342°
2026-04-26 20:16 37.47597 -122.15322 5994 ft 278 kts 343°
2026-04-26 20:16 37.49456 -122.15926 5408 ft 276 kts 342°
2026-04-26 20:17 37.51330 -122.16542 4600 ft 282 kts 342°
2026-04-26 20:17 37.53120 -122.17418 4105 ft 270 kts 323°
2026-04-26 20:17 37.54043 -122.18466 3712 ft 263 kts 305°
2026-04-26 20:17 37.54956 -122.20445 2918 ft 266 kts 295°
2026-04-26 20:18 37.55820 -122.22526 2295 ft 264 kts 295°
2026-04-26 20:18 37.56644 -122.24520 2055 ft 248 kts 295°
2026-04-26 20:18 37.57405 -122.26368 1867 ft 229 kts 296°
2026-04-26 20:18 37.58169 -122.28042 1571 ft 217 kts 301°
2026-04-26 20:19 37.58999 -122.29674 828 ft 222 kts 300°
2026-04-26 20:19 37.59664 -122.31247 783 ft 182 kts 295°
2026-04-26 20:19 37.60206 -122.32708 714 ft 177 kts 291°
2026-04-26 20:19 37.60627 -122.34069 321 ft 160 kts 294°
2026-04-26 20:20 37.61146 -122.35172 150 ft 137 kts 298°
2026-04-26 20:20 37.61557 -122.36170 50 ft 117 kts 297°
2026-04-26 20:20 37.61904 -122.36978 17 ft 91 kts 293°
2026-04-26 20:20 37.62101 -122.37524 19 ft 46 kts 299°
2026-04-26 20:21 37.62200 -122.37800 20 ft 31 kts 264°
2026-04-26 20:21 37.62219 -122.38024 24 ft 23 kts 274°
2026-04-26 20:21 37.62217 -122.38227 22 ft 23 kts 252°
2026-04-26 20:21 37.62102 -122.38323 25 ft 20 kts 195°
2026-04-26 20:22 37.62039 -122.38354 24 ft 4 kts 200°
2026-04-26 20:22 37.62002 -122.38374 23 ft 5 kts 206°
2026-04-26 20:22 37.61990 -122.38382 21 ft 0 kts 209°